• In Germany
  • List of Countries
  • For 7 days
  • Water Temperature
  • Satellite Maps
  • Weather Map
  • Weather Widgets
  • user-avatar
    Login

    Hourly Weather Kerns

    Today, 18 January, Thursday

    Time Temperature Precipitation Wind Pressure Humidity
    00:00 +26°C° 0.1 mm 6 mps 758 mmHg 95%
    01:00 +26°C° 0.1 mm 6 mps 757 mmHg 95%
    02:00 +26°C° 0.1 mm 6 mps 757 mmHg 95%
    03:00 +26°C° 0.1 mm 6 mps 757 mmHg 95%
    04:00 +26°C° 0 mm 5 mps 756 mmHg 95%
    05:00 +26°C° 0.1 mm 5 mps 757 mmHg 95%
    06:00 +26°C° 0.1 mm 5 mps 757 mmHg 94%
    07:00 +27°C° 0.1 mm 5 mps 757 mmHg 94%
    08:00 +28°C° 0.1 mm 6 mps 758 mmHg 89%
    09:00 +29°C° 0.1 mm 6 mps 758 mmHg 85%
    10:00 +30°C° 0 mm 6 mps 758 mmHg 79%
    11:00 +30°C° 0.1 mm 6 mps 758 mmHg 77%
    12:00 +32°C° 0.1 mm 6 mps 757 mmHg 75%
    13:00 +32°C° 0.1 mm 6 mps 757 mmHg 72%
    14:00 +32°C° 0.1 mm 6 mps 757 mmHg 72%
    15:00 +32°C° 0.1 mm 6 mps 757 mmHg 72%
    16:00 +32°C° 0 mm 6 mps 756 mmHg 72%
    17:00 +30°C° 0.1 mm 6 mps 757 mmHg 78%
    18:00 +29°C° 0.1 mm 6 mps 757 mmHg 83%
    19:00 +27°C° 0.1 mm 5 mps 757 mmHg 88%
    20:00 +27°C° 0.3 mm 5 mps 758 mmHg 90%
    21:00 +27°C° 0.3 mm 5 mps 758 mmHg 92%
    22:00 +27°C° 0.3 mm 5 mps 758 mmHg 93%
    23:00 +27°C° 0.4 mm 5 mps 758 mmHg 94%

    Tomorrow, 19 January, Friday

    Time Temperature Precipitation Wind Pressure Humidity
    00:00 +27°C° 0.4 mm 5 mps 757 mmHg 94%
    01:00 +27°C° 0.4 mm 5 mps 757 mmHg 95%
    02:00 +27°C° 0.3 mm 5 mps 757 mmHg 95%
    03:00 +27°C° 0.3 mm 5 mps 757 mmHg 95%
    04:00 +27°C° 0.3 mm 5 mps 756 mmHg 95%
    05:00 +27°C° 0.3 mm 5 mps 757 mmHg 94%
    06:00 +27°C° 0.3 mm 5 mps 757 mmHg 93%
    07:00 +27°C° 0.3 mm 5 mps 757 mmHg 92%
    08:00 +28°C° 0.5 mm 5 mps 757 mmHg 89%
    09:00 +29°C° 0.5 mm 6 mps 757 mmHg 85%
    10:00 +30°C° 0.5 mm 6 mps 757 mmHg 81%
    11:00 +29°C° 0.7 mm 6 mps 757 mmHg 84%
    12:00 +29°C° 0.7 mm 6 mps 756 mmHg 87%
    13:00 +28°C° 0.7 mm 6 mps 756 mmHg 90%
    14:00 +28°C° 1.4 mm 6 mps 755 mmHg 91%
    15:00 +28°C° 1.4 mm 6 mps 755 mmHg 92%
    16:00 +27°C° 1.4 mm 6 mps 755 mmHg 92%
    17:00 +27°C° 2.3 mm 6 mps 755 mmHg 94%
    18:00 +27°C° 2.3 mm 6 mps 755 mmHg 95%
    19:00 +27°C° 2.3 mm 5 mps 755 mmHg 96%
    20:00 +27°C° 3.8 mm 6 mps 756 mmHg 96%
    21:00 +26°C° 3.8 mm 6 mps 756 mmHg 96%
    22:00 +26°C° 3.8 mm 6 mps 757 mmHg 96%
    23:00 +26°C° 1.5 mm 6 mps 756 mmHg 96%

    Day after tomorrow, 20 January, Saturday

    Time Temperature Precipitation Wind Pressure Humidity
    00:00 +26°C° 1.5 mm 5 mps 756 mmHg 97%
    01:00 +26°C° 1.5 mm 5 mps 755 mmHg 97%
    02:00 +26°C° 1.2 mm 5 mps 755 mmHg 97%
    03:00 +26°C° 1.2 mm 5 mps 755 mmHg 97%
    04:00 +26°C° 1.2 mm 5 mps 754 mmHg 96%
    05:00 +26°C° 2.6 mm 5 mps 755 mmHg 96%
    06:00 +26°C° 2.6 mm 5 mps 755 mmHg 96%
    07:00 +26°C° 2.6 mm 4 mps 755 mmHg 96%
    08:00 +26°C° 3.8 mm 4 mps 756 mmHg 97%
    09:00 +26°C° 3.8 mm 4 mps 756 mmHg 97%
    10:00 +26°C° 3.8 mm 3 mps 756 mmHg 97%
    11:00 +27°C° 2.6 mm 3 mps 756 mmHg 96%
    12:00 +27°C° 2.6 mm 3 mps 755 mmHg 96%
    13:00 +28°C° 2.6 mm 2 mps 755 mmHg 95%
    14:00 +28°C° 1.9 mm 2 mps 754 mmHg 94%
    15:00 +28°C° 1.9 mm 2 mps 754 mmHg 93%
    16:00 +29°C° 1.9 mm 2 mps 753 mmHg 92%
    17:00 +28°C° 0.9 mm 2 mps 754 mmHg 94%
    18:00 +28°C° 0.9 mm 2 mps 754 mmHg 95%
    19:00 +27°C° 0.9 mm 2 mps 754 mmHg 97%
    20:00 +27°C° 0.3 mm 2 mps 755 mmHg 97%
    21:00 +27°C° 0.3 mm 2 mps 755 mmHg 98%
    22:00 +27°C° 0.3 mm 2 mps 756 mmHg 98%
    23:00 +27°C° 0.4 mm 2 mps 755 mmHg 98%

    21 January, Sunday

    Time Temperature Precipitation Wind Pressure Humidity
    00:00 +26°C° 0.4 mm 2 mps 755 mmHg 98%
    01:00 +26°C° 0.4 mm 2 mps 755 mmHg 98%
    02:00 +26°C° 0.5 mm 3 mps 754 mmHg 98%
    03:00 +26°C° 0.5 mm 3 mps 754 mmHg 98%
    04:00 +26°C° 0.5 mm 4 mps 754 mmHg 98%
    05:00 +26°C° 0.1 mm 4 mps 754 mmHg 97%
    06:00 +26°C° 0.1 mm 5 mps 754 mmHg 96%
    07:00 +26°C° 0.1 mm 5 mps 755 mmHg 96%
    08:00 +26°C° 0.1 mm 5 mps 755 mmHg 93%
    09:00 +27°C° 0.1 mm 5 mps 755 mmHg 90%
    10:00 +28°C° 0.1 mm 5 mps 756 mmHg 86%
    11:00 +28°C° 0.2 mm 6 mps 755 mmHg 84%
    12:00 +29°C° 0.2 mm 6 mps 755 mmHg 82%
    13:00 +29°C° 0.2 mm 6 mps 754 mmHg 80%
    14:00 +28°C° 0.2 mm 6 mps 754 mmHg 83%
    15:00 +27°C° 0.2 mm 7 mps 754 mmHg 86%
    16:00 +27°C° 0.2 mm 7 mps 753 mmHg 89%
    17:00 +26°C° 0.2 mm 7 mps 754 mmHg 90%
    18:00 +24°C° 0.2 mm 7 mps 754 mmHg 92%
    19:00 +23°C° 0.2 mm 7 mps 755 mmHg 93%
    20:00 +23°C° 0.2 mm 6 mps 755 mmHg 93%
    21:00 +23°C° 0.2 mm 6 mps 756 mmHg 94%
    22:00 +23°C° 0.2 mm 5 mps 756 mmHg 94%
    23:00 +23°C° 0.6 mm 5 mps 756 mmHg 95%

    22 January, Monday

    Time Temperature Precipitation Wind Pressure Humidity
    00:00 +23°C° 0.6 mm 4 mps 755 mmHg 95%
    01:00 +23°C° 0.6 mm 4 mps 755 mmHg 96%
    02:00 +23°C° 0.3 mm 4 mps 754 mmHg 96%
    03:00 +23°C° 0.3 mm 4 mps 754 mmHg 97%
    04:00 +23°C° 0.3 mm 4 mps 753 mmHg 97%
    05:00 +25°C° 0.3 mm 3 mps 754 mmHg 97%
    06:00 +25°C° 0.3 mm 3 mps 754 mmHg 97%
    07:00 +26°C° 0.3 mm 3 mps 755 mmHg 97%
    08:00 +26°C° 0.9 mm 3 mps 755 mmHg 96%
    09:00 +27°C° 0.9 mm 3 mps 755 mmHg 94%
    10:00 +28°C° 0.9 mm 3 mps 755 mmHg 93%
    11:00 +28°C° 1.3 mm 3 mps 755 mmHg 91%
    12:00 +29°C° 1.3 mm 4 mps 754 mmHg 90%
    13:00 +29°C° 1.3 mm 4 mps 754 mmHg 89%
    14:00 +29°C° 0.9 mm 4 mps 754 mmHg 90%
    15:00 +29°C° 0.9 mm 3 mps 753 mmHg 92%
    16:00 +28°C° 0.9 mm 3 mps 753 mmHg 93%
    17:00 +28°C° 0.7 mm 3 mps 753 mmHg 94%
    18:00 +27°C° 0.7 mm 3 mps 754 mmHg 96%
    19:00 +27°C° 0.7 mm 3 mps 754 mmHg 97%
    20:00 +27°C° 1 mm 2 mps 754 mmHg 97%
    21:00 +27°C° 1 mm 2 mps 755 mmHg 98%
    22:00 +27°C° 1 mm 2 mps 755 mmHg 98%
    23:00 +27°C° 1.5 mm 2 mps 755 mmHg 98%

    23 January, Tuesday

    Time Temperature Precipitation Wind Pressure Humidity
    00:00 +27°C° 1.5 mm 2 mps 754 mmHg 98%
    01:00 +26°C° 1.5 mm 2 mps 754 mmHg 98%
    02:00 +26°C° 1.5 mm 2 mps 754 mmHg 98%
    03:00 +26°C° 1.5 mm 2 mps 753 mmHg 98%
    04:00 +26°C° 1.5 mm 2 mps 753 mmHg 98%
    05:00 +26°C° 1.1 mm 2 mps 754 mmHg 98%
    06:00 +26°C° 1.1 mm 2 mps 754 mmHg 98%
    07:00 +26°C° 1.1 mm 2 mps 755 mmHg 98%
    08:00 +27°C° 0.7 mm 2 mps 755 mmHg 97%
    09:00 +27°C° 0.7 mm 2 mps 755 mmHg 96%
    10:00 +28°C° 0.7 mm 2 mps 755 mmHg 95%
    11:00 +28°C° 0.7 mm 2 mps 755 mmHg 93%
    12:00 +29°C° 0.7 mm 2 mps 754 mmHg 92%
    13:00 +29°C° 0.7 mm 2 mps 754 mmHg 91%
    14:00 +29°C° 0.8 mm 2 mps 754 mmHg 92%
    15:00 +28°C° 0.8 mm 2 mps 753 mmHg 93%
    16:00 +28°C° 0.8 mm 2 mps 753 mmHg 94%
    17:00 +28°C° 0.9 mm 2 mps 753 mmHg 95%
    18:00 +27°C° 0.9 mm 2 mps 754 mmHg 97%
    19:00 +27°C° 0.9 mm 2 mps 754 mmHg 98%
    20:00 +27°C° 1.3 mm 2 mps 754 mmHg 98%
    21:00 +27°C° 1.3 mm 1 mps 755 mmHg 98%
    22:00 +27°C° 1.3 mm 1 mps 755 mmHg 98%
    23:00 +27°C° 1.9 mm 1 mps 754 mmHg 98%
    Show more